Flag for Norway Weather past 2 weeks in Tønsberg, Norway

Now
41 °F

Sprinkles. Partly sunny.


Feels Like: 30 °F
Forecast: 35 / 49 °F
Wind: 28 mph from Northwest

Location: Oseberg

Current Time: Apr 26, 2015 at 7:43:42 AM

Latest Report: Apr 26, 2015 at 6:50 AM


Visibility: N/A

Pressure: 29.42 "Hg

Humidity: 70%

Dew point: 32 °F

Location of TønsbergLocation

Historic Weather in Tønsberg — Graph

°F

Tønsberg temperature yesterday

Maximum temperature yesterday: 45 °F (at 4:50 AM)
Minimum temperature yesterday: 36 °F (at 6:50 PM)
Average temperature yesterday: 40 °F

Past Weeks' High & Low Weather Summary

 TemperatureHumidityPressure
High50 °F (Apr 19, 2:50 PM)100% (Apr 11, 8:50 AM)30.48 "Hg (Apr 11, 8:50 AM)
Low36 °F (Apr 25, 6:50 PM)42% (Apr 13, 5:50 AM)29.24 "Hg (Apr 25, 1:50 PM)
Average44 °F80%29.96 "Hg
* Reported Apr 11 5:50 AM — Apr 26 5:50 AM, Tønsberg, Weather by CustomWeather, © 2015

Note: Actual official high and low records may vary slightly from our data, if they occured in-between our weather recording intervals... More about our weather records

Advertising

Tønsberg weather history for previous 24 hours

 ConditionsComfort  
Time TempWeatherWind HumidityBarometerVisibility
5:50 AM
Sun, Apr 26
41 °FPassing clouds.18 mph76%N/AN/A
4:50 AM41 °FPassing clouds.18 mph70%N/AN/A
3:50 AM41 °FPassing clouds.21 mph76%29.65 "HgN/A
2:50 AM39 °FPassing clouds.22 mph87%29.65 "HgN/A
1:50 AM41 °FPassing clouds.20 mph76%29.62 "HgN/A
12:50 AM41 °FPassing clouds.18 mph76%29.62 "HgN/A
11:50 PM
Sat, Apr 25
39 °FPartly cloudy.21 mph81%29.56 "HgN/A
10:50 PM39 °FSprinkles. Partly cloudy.21 mph81%29.59 "HgN/A
8:50 PM36 °FMixture of precip. Partly sunny.28 mph93%29.56 "HgN/A
8:20 PM36 °FSprinkles. Partly sunny.30 mph93%29.53 "Hg6 mi
7:20 PM36 °FSnow flurries. Partly sunny.20 mph87%29.45 "Hg5 mi
6:50 PM36 °FDrizzle. Broken clouds.18 mph93%29.45 "HgN/A
6:20 PM37 °FScattered showers. Partly sunny.13 mph93%29.45 "HgN/A
5:50 PM37 °FPartly sunny.8 mph93%29.24 "HgN/A
5:20 PM37 °FLight rain. Mostly cloudy.7 mph87%N/A4 mi
4:50 PM39 °FLight rain. Partly sunny.5 mph87%29.24 "HgN/A
4:20 PM39 °FLight rain. Partly sunny.7 mph93%N/AN/A
3:50 PM41 °FLight rain. Mostly cloudy.6 mph81%N/A4 mi
3:20 PM41 °FLight rain. Partly sunny.6 mph87%N/A5 mi
2:20 PM41 °FDrizzle. Partly sunny.9 mph87%29.24 "HgN/A
1:50 PM41 °FPartly sunny.5 mph87%29.24 "HgN/A
1:20 PM41 °FLight rain. Partly sunny.6 mph87%29.27 "Hg6 mi
12:50 PM39 °FLight rain. Partly sunny.12 mph93%29.27 "HgN/A
12:20 PM39 °FLight rain. Partly sunny.12 mph93%29.27 "HgN/A
11:50 AM39 °FLight rain. Partly sunny.12 mph93%29.27 "HgN/A
11:20 AM41 °FLight rain. Partly sunny.13 mph87%29.30 "Hg6 mi
10:50 AM39 °FLight rain. Partly sunny.15 mph93%29.30 "HgN/A
10:20 AM41 °FLight rain. Partly sunny.15 mph87%29.30 "HgN/A
9:50 AM41 °FLight rain. Partly sunny.15 mph87%29.33 "HgN/A
9:20 AM41 °FLight rain. Partly sunny.16 mph87%29.33 "HgN/A
8:50 AM41 °FDrizzle. Broken clouds.15 mph87%29.33 "HgN/A
8:20 AM41 °FDrizzle. Partly sunny.14 mph87%29.33 "HgN/A
7:50 AM39 °FDrizzle. Broken clouds.14 mph93%29.36 "HgN/A
7:20 AM41 °FDrizzle. Partly sunny.10 mph87%29.36 "HgN/A
Weather by CustomWeather, © 2015

See weather overviewHow to use our weather pages